Location: Buckeye Ditch
(40.9104°N, 122.9517°W)
Time: 12:27:45
(UTC+00:00)

Tiros 1 despin weight - Pass Details

Date: 21 May 2025
Orbit: 563 x 601 km, 48.2° (Epoch: 22 June)

Event Time Altitude Azimuth Distance (km) Brightness Sun altitude
Rises 16:36:11 0° 294° (WNW) 2,847 ? 40.8°
Reaches altitude 10° 16:38:37 10° 286° (WNW) 1,942 ? 41.2°
Maximum altitude 16:42:41 35° 220° (SW) 964 ? 42.0°
Drops below altitude 10° 16:46:44 10° 154° (SSE) 1,928 ? 42.8°
Sets 16:49:08 0° 146° (SE) 2,823 ? 43.2°
